Location: Riverton
(43.0250°N, 108.3790°W)
Time: 13:28:30
(UTC-06:00)

Daily predictions for brighter satellites

Satellite Brightness Start Highest point End
(mag) Time Altitude Azimuth Time Altitude Azimuth Time Altitude Azimuth
Nadezhda 1 Rocket 4.5 19:31:19 10° NNW 19:37:42 71° W 19:43:57 10° S
USA 229 DEB 3.9 19:34:10 10° NW 19:41:21 75° NE 19:48:41 10° SE
USA 229 3.9 19:34:16 10° NW 19:41:27 75° NE 19:48:46 10° SE
Cosmos 2181 Rocket 4.1 19:36:03 10° N 19:42:10 55° ENE 19:48:10 10° SSE
BREEZE-M DEB (TANK) 3.5 19:41:43 10° WNW 19:44:10 20° N 19:45:50 10° NE
HJ-1C 4.3 19:43:13 10° SE 19:46:09 29° ENE 19:49:07 10° N
Cosmos 2263 4.3 19:42:45 10° NNW 19:48:24 86° WSW 19:54:03 10° SSE
NOAA 12 4.2 19:43:35 10° SSE 19:48:49 83° WSW 19:54:06 10° NNW
Cosmos 1378 3.6 19:46:15 10° N 19:49:50 39° ENE 19:53:23 10° SSE
COSMO-SKYMED 1 3.6 19:45:54 10° N 19:50:08 52° WNW 19:54:20 10° SSW
Cosmos 1943 3.6 19:45:24 10° SSW 19:51:03 71° WNW 19:56:47 10° NNE
BREEZE M DEB (TANK) 3.8 19:41:20 10° WNW 19:51:16 65° NNE 19:54:24 11° E
NOSS 3-1 (C) 4.3 19:48:44 10° NNW 19:56:04 55° NE 20:04:14 10° SE
CZ-2D R/B 4.3 19:53:07 10° SE 19:56:19 26° ENE 19:59:31 10° NNE
Cosmos 1763 Rocket 3.7 19:51:57 10° S 19:56:48 46° ESE 20:01:43 10° NNE
SL-08 ROCKET BODY 4.5 19:52:55 10° SSE 19:58:35 53° E 20:04:21 10° NNE
Cosmos 1758 Rocket 3.6 19:54:31 10° N 19:59:01 77° E 20:03:31 10° SSE
Thor Agena Rocket 3.5 19:53:53 10° NNE 19:59:11 80° ESE 20:04:24 10° SSW
Cosmos 2074 Rocket 4.4 19:56:43 10° SSE 20:02:26 41° E 20:08:10 10° NNE
SJ-6B 2.9 20:00:34 10° SSE 20:04:32 61° ENE 20:08:27 10° N
Cosmos 1726 Rocket 3.5 20:02:35 10° S 20:06:57 81° E 20:11:19 10° N
Cosmos 304 Rocket 4.2 20:04:51 10° S 20:09:17 39° ESE 20:13:45 10° NE
Meteor 1-24 Rocket 4.1 20:04:50 10° N 20:10:35 46° ENE 20:16:10 10° SSE
Cosmos 1709 Rocket 4.3 20:04:53 10° SSW 20:11:12 75° W 20:17:38 10° N
Spot 2 Rocket 3.9 20:16:02 12° SE 20:20:22 40° ENE 20:25:04 10° N
Resurs 01 Rocket 2.0 20:18:05 12° SE 20:21:59 44° ENE 20:26:12 10° N
USA 186 2.7 20:22:48 21° NE 20:22:48 21° NE 20:24:13 10° NNE
ALOS 3.8 20:21:46 10° SSW 20:26:06 38° W 20:30:29 10° NNW
ATLAS CENTAUR R/B 3.6 20:12:10 10° NW 20:27:38 90° SSW 20:31:41 18° SE
FREGAT/IRIS 4.2 20:25:14 10° SSW 20:28:04 37° W 20:30:56 10° NNW
GP-B 3.7 20:25:22 10° NNE 20:29:25 33° E 20:31:31 22° SE
Cosmos 1943 Rocket 3.3 20:26:59 10° NW 20:32:17 45° WSW 20:37:35 10° S
Cosmos 1814 Rocket 4.3 20:30:08 10° SSW 20:35:17 68° WNW 20:40:25 10° NNE
H-2A R/B 3.7 20:32:58 10° S 20:36:32 46° W 20:40:10 10° NNW
Cosmos 2184 Rocket 3.9 20:30:26 10° S 20:36:41 73° E 20:43:03 10° NNE
Cosmos 2084 3.1 20:32:41 10° SSW 20:36:46 81° SE 20:40:41 10° NE
Lacrosse 5 4.4 20:34:49 10° W 20:38:01 17° WSW 20:41:13 10° SSW
Meteor 2-5 Rocket 4.2 20:34:34 10° NNW 20:40:24 67° W 20:46:06 10° S
Cosmos 1125 Rocket 3.8 20:36:05 10° N 20:41:11 46° ENE 20:43:27 29° ESE
Cosmos 2228 3.6 20:38:40 10° SSW 20:42:59 61° W 20:47:18 10° N
Cosmos 1812 Rocket 3.9 20:41:33 21° SSE 20:44:05 43° E 20:48:19 10° NNE
Cosmos 2058 Rocket 3.8 20:40:38 10° SSW 20:44:53 54° W 20:49:11 10° N
BREEZE-M DEB 4.3 20:39:35 10° WNW 20:47:11 39° SW 20:49:07 20° S
Cosmos 1766 3.1 20:44:31 10° S 20:48:26 81° E 20:52:22 10° N
Meteor 1-22 Rocket 4.1 20:42:51 10° S 20:48:37 82° E 20:54:11 10° NNE
MOS 1-B Rocket 3.9 20:42:43 11° SSE 20:48:48 71° ENE 20:54:29 10° N
H-2A R/B 4.2 20:51:51 10° NE 20:51:51 10° NE 20:52:11 10° NE
ERS-1 Rocket 4.4 20:51:32 20° ENE 20:51:32 20° ENE 20:54:51 10° NNE
BREEZE M DEB (TANK) 3.5 20:46:14 10° W 20:51:56 36° NNW 20:53:19 23° NNE
Envisat 2.9 20:48:56 21° SSE 20:52:22 72° ENE 20:57:28 10° N
Cosmos 1939 Rocket 3.0 20:54:15 46° ENE 20:54:18 47° ENE 20:58:04 10° N
Cosmos 372 Rocket 4.0 20:54:24 10° NNW 20:59:36 58° ENE 21:01:06 42° ESE
Meteor 2-8 Rocket 4.3 20:53:26 10° N 20:59:37 85° E 21:05:00 14° S
Cosmos 2327 Rocket 4.5 20:54:30 10° S 21:00:38 81° W 21:06:46 10° N
COSMOS 2406 3.1 20:55:42 10° SSW 21:01:22 75° ESE 21:07:07 10° NNE
Cosmos 1656 Rocket 4.5 21:07:17 10° NW 21:12:43 49° WSW 21:16:56 16° S
Meteor 2-19 Rocket 4.3 21:06:42 10° S 21:12:44 84° E 21:18:49 10° N
Milstar 3 Cent rocket 4.2 21:14:11 10° SSW 21:14:23 10° S 21:14:23 10° S
ARGOS 4.3 21:20:04 28° NE 21:20:04 28° NE 21:23:53 10° N
Cosmos 962 Rocket 4.4 21:19:57 31° SSE 21:23:03 67° E 21:29:24 10° NNE
Cosmos 1674 4.0 21:19:46 10° N 21:21:54 31° N 21:21:54 31° N
BREEZE-M DEB (TANK) 2.8 21:16:15 10° WSW 21:25:46 77° SSE 21:26:09 71° ESE
Cosmos 1805 3.6 21:26:17 60° W 21:26:28 61° W 21:30:20 10° N
ATLAS 2AS CENTAUR R/B 3.7 21:20:18 10° NNW 21:27:46 39° NE 21:29:43 34° ENE
YAOGAN 6 4.0 21:30:23 34° NNW 21:30:23 34° NNW 21:32:30 10° NNW
Helios 1A 4.0 21:34:13 39° N 21:34:13 39° N 21:36:57 10° N
NOSS 3-1 (A) 4.4 21:29:21 10° NW 21:36:55 61° WSW 21:41:02 32° S
Centaur D AC-29 3.9 21:36:27 10° SW 21:38:54 12° SSW 21:38:54 12° SSW
Cosmos 1953 4.2 21:43:48 24° N 21:43:48 24° N 21:45:30 10° N
Cosmos 2154 Rocket 4.3 21:35:20 10° SSW 21:41:30 66° W 21:47:45 10° N
Meteor 2-15 4.4 21:38:10 10° N 21:43:48 63° ENE 21:43:48 63° ENE
Cosmos 540 Rocket 4.2 21:39:33 10° SW 21:44:30 50° WNW 21:49:29 10° N
Cosmos 2341 Rocket 4.0 21:46:35 39° SSW 21:49:03 81° W 21:55:18 10° N
Cosmos 2278 4.2 21:49:46 10° NNW 21:54:21 51° NNE 21:54:21 51° NNE
Resurs 01 Rocket 4.2 21:55:40 10° SW 21:58:40 18° W 22:01:42 10° NW
GEOS 3 Rocket 4.2 21:56:36 10° NNE 22:01:54 58° NW 22:07:09 10° SW
Terra 4.4 22:15:59 12° NNE 22:15:59 12° NNE 22:16:29 10° NNE
Cosmos 1980 Rocket 3.8 22:19:58 10° N 22:22:52 26° NNE 22:22:52 26° NNE
Cosmos 1697 Rocket 3.9 22:19:35 10° NNW 22:23:01 36° N 22:23:01 36° N
FALCON 9 R/B 3.9 22:20:32 10° WSW 22:22:28 26° SW 22:22:28 26° SW
H-2A R/B 3.8 22:32:29 26° N 22:32:29 26° N 22:34:37 10° N
ERS-1 Rocket 4.5 22:31:33 34° NW 22:31:33 34° NW 22:34:33 10° NNW
SL-16 R/B 4.4 22:43:24 10° N 22:45:11 16° NNE 22:45:11 16° NNE
ATLAS 2AS CENTAUR R/B 3.7 23:11:25 10° NW 23:17:09 47° WNW 23:17:09 47° WNW
